Location: Burgerwiesen
(48.6500°N, 15.6167°E)
Time: 09:20:27
(UTC+00:00)

COSMOS 2455 - Pass Details

Date: 09 April 2020
Orbit: 900 x 910 km, 67.1° (Epoch: 24 May)

Event Time Altitude Azimuth Distance (km) Brightness Sun altitude
Rises 18:15:59 0° 326° (NW) 3,546 6.9 -6.4°
Reaches altitude 10° 18:18:32 10° 330° (NNW) 2,603 6.1 -6.8°
Maximum altitude 18:24:31 62° 50° (NE) 1,024 3.0 -7.7°
Drops below altitude 10° 18:30:29 10° 131° (SE) 2,592 4.6 -8.7°
Enters shadow 18:30:46 - 132° (SE) 2,696 4.7 -8.7°
